Regional Weather Roundup
Issued by NWS

Home | Current Version | Previous Version | Text Only | Print | Product List | Glossary On
Versions: 1 2 3 4 5 6 7 8 9 10 11 12 13 14 15 16 17 18 19 20 21 22 23 24 25 26 27 28 29 30 31 32 33 34 35 36 37 38 39 40 41 42 43 44 45 46 47 48 49 50
000
ASUS45 KPSR 250610
RWRAZ

ARIZONA REGIONAL HOURLY WEATHER ROUNDUP
NATIONAL WEATHER SERVICE PHOENIX AZ
1100 PM MST FRI OCT 24 2014

NOTE: FAIR INDICATES FEW OR NO CLOUDS BELOW 12,000 FEET WITH NO
SIGNIFICANT WEATHER AND/OR OBSTRUCTIONS TO VISIBILITY.

AZZ001>003-036-250700-
NORTHWEST ARIZONA

CITY           SKY/WX    TMP DP  RH WIND       PRES   REMARKS
BULLHEAD CITY  CLEAR     77  39  25 CALM      29.96S
KINGMAN        CLEAR     61  39  44 SE13      30.13S
6HR MIN TEMP:  59; 6HR MAX TEMP:  81;

$$

AZZ004>008-015-016-018-250700-
NORTH CENTRAL ARIZONA

CITY           SKY/WX    TMP DP  RH WIND       PRES   REMARKS
GRAND CANYON   CLEAR     36  22  56 CALM      30.35F
6HR MIN TEMP:  36; 6HR MAX TEMP:  72;

PRESCOTT       CLEAR     54  40  59 SW7       30.26S
6HR MIN TEMP:  54; 6HR MAX TEMP:  77;

FLAGSTAFF      CLEAR     40  29  64 CALM      30.39S
6HR MIN TEMP:  40; 6HR MAX TEMP:  67;

PAYSON         CLEAR     57  41  54 CALM      30.29S
PAGE           CLEAR     63  35  35 W3        30.19S
6HR MIN TEMP:  60; 6HR MAX TEMP:  78;

$$

AZZ009>014-017-250700-
NORTHEAST ARIZONA

CITY           SKY/WX    TMP DP  RH WIND       PRES   REMARKS
WINSLOW        CLEAR     56  39  53 E6        30.25S
6HR MIN TEMP:  56; 6HR MAX TEMP:  81;

SAINT JOHNS    CLEAR     55  41  59 S6        30.29S
6HR MIN TEMP:  55; 6HR MAX TEMP:  77;

WINDOW ROCK    CLEAR     42  27  55 CALM      30.38S
6HR MIN TEMP:  42; 6HR MAX TEMP:  73;

SHOW LOW       CLEAR     54  37  54 S10       30.37S
$$

AZZ023-250700-
GREATER PHOENIX AREA

CITY           SKY/WX    TMP DP  RH WIND       PRES   REMARKS
PHOENIX        CLEAR     78  53  41 E5        29.98S
6HR MIN TEMP:  78; 6HR MAX TEMP:  95;

BUCKEYE          N/A     68  45  42 N3        29.99S
LUKE AFB       CLEAR    N/A N/A N/A N5          N/A
DEER VALLEY    CLEAR     77  45  32 NE13      30.00S
6HR MIN TEMP:  76; 6HR MAX TEMP:  91;

SCOTTSDALE     CLEAR     75  50  41 CALM      30.02S
6HR MIN TEMP:  73; 6HR MAX TEMP:  92;

MESA-GATEWAY   CLEAR     73  48  40 E8        30.02S
$$

AZZ027-028-250700-
SOUTHWEST MARICOPA COUNTY AND PINAL COUNTY

CITY           SKY/WX    TMP DP  RH WIND       PRES   REMARKS
CASA GRANDE    CLEAR     70  46  43 CALM      30.02S
6HR MIN TEMP:  70; 6HR MAX TEMP:  91;

$$

AZZ503-504-507>509-250700-
SOUTHEAST ARIZONA

CITY           SKY/WX    TMP DP  RH WIND       PRES   REMARKS
TUCSON         CLEAR     72  46  39 S5        30.11S
6HR MIN TEMP:  72; 6HR MAX TEMP:  91;

DAVIS-MONTHAN  CLEAR     70  48  45 E5        30.10S
6HR MIN TEMP:  69; 6HR MAX TEMP:  89;

NOGALES        CLEAR     62  46  55 CALM      30.19S
6HR MIN TEMP:  61; 6HR MAX TEMP:  83;

SIERRA VISTA   CLEAR     66  45  45 W10       30.24S
DOUGLAS        CLEAR     56  45  66 W6        30.20S
6HR MIN TEMP:  56; 6HR MAX TEMP:  84;

SAFFORD        CLEAR     63  48  58 CALM      30.13S
6HR MIN TEMP:  62; 6HR MAX TEMP:  84;

$$

AZZ020-021-025-026-031-250700-
SOUTHWEST ARIZONA

CITY           SKY/WX    TMP DP  RH WIND       PRES   REMARKS
YUMA           CLEAR     79  46  31 E3        29.93S
6HR MIN TEMP:  79; 6HR MAX TEMP:  96;

$$

CAZ031-033-041-043-047-048-061-250700-
SOUTHERN CALIFORNIA

CITY           SKY/WX    TMP DP  RH WIND       PRES   REMARKS
DOWNTOWN L.A.  CLEAR     67  60  78 CALM      29.99R
6HR MIN TEMP:  67; 6HR MAX TEMP:  83;

L.A. AIRPORT   CLEAR     67  67 100 W7        30.00R
6HR MIN TEMP:  67; 6HR MAX TEMP:  73;

SAN DIEGO      CLEAR     71  66  84 CALM      30.00R
6HR MIN TEMP:  71; 6HR MAX TEMP:  79;

BURBANK        CLEAR     71  58  63 CALM      30.00R
6HR MIN TEMP:  71; 6HR MAX TEMP:  86;

ONTARIO        CLEAR     73  32  22 CALM      30.02R
6HR MIN TEMP:  71; 6HR MAX TEMP:  87;

RIVERSIDE      CLEAR     68  38  33 E3        30.02R
6HR MIN TEMP:  68; 6HR MAX TEMP:  87;

PALM SPRINGS   CLEAR     76  48  37 CALM      29.97R
6HR MIN TEMP:  76; 6HR MAX TEMP:  93;

EL CENTRO NAS  CLEAR     75  46  35 S5        29.91R
6HR MIN TEMP:  73; 6HR MAX TEMP:  96;

IMPERIAL       CLEAR     75  51  43 CALM      29.90S
6HR MIN TEMP:  74; 6HR MAX TEMP:  95;

BLYTHE         CLEAR     75  44  33 CALM      29.94R
6HR MIN TEMP:  75; 6HR MAX TEMP:  94;

NEEDLES        CLEAR     78  39  24 CALM      29.96S
6HR MIN TEMP:  77; 6HR MAX TEMP:  94;

$$

NVZ020-UTZ003-250700-
SOUTHERN NEVADA-UTAH

CITY           SKY/WX    TMP DP  RH WIND       PRES   REMARKS
LAS VEGAS      CLEAR     73  38  27 SW9       29.99S
6HR MIN TEMP:  73; 6HR MAX TEMP:  87;

SALT LAKE CITY CLEAR     62  30  29 SE14      30.08F
6HR MIN TEMP:  56; 6HR MAX TEMP:  70;

$$

NMZ009-TXZ055-250700-
NEW MEXICO-WEST TEXAS

CITY           SKY/WX    TMP DP  RH WIND       PRES   REMARKS
ALBUQUERQUE    CLEAR     60  34  37 E5        30.29S
6HR MIN TEMP:  55; 6HR MAX TEMP:  77;

EL PASO        PTCLDY    67  48  50 CALM      30.20S
6HR MIN TEMP:  65; 6HR MAX TEMP:  80;

$$


........................KEY........................
SKY/WX - SKY CONDITION/WEATHER
TMP    - TEMPERATURE IN FAHRENHEIT
DP     - DEW POINT IN FAHRENHEIT
RH     - RELATIVE HUMIDITY IN PERCENT
WIND   - DIRECTION AND SPEED IN MILES PER HOUR (MPH)
VRB    - VARIABLE WIND DIRECTION
PRES   - MEAN SEA LEVEL PRESSURE IN INCHES OF MERCURY
         F - FALLING PRESSURE   R - RISING PRESSURE
         S - STEADY PRESSURE
VSB    - VISIBILITY IN MILES
HX     - HEAT INDEX IN FAHRENHEIT
WCI    - WIND CHILL INDEX IN FAHRENHEIT
TC     - TEMPERATURE IN CELSIUS WHICH IS ALSO KNOWN AS
         TEMPERATURE IN CENTIGRADE
AFB    - AIR FORCE BASE
         LUKE AFB IS LUKE AIR FORCE BASE
         DAVIS-MONTHAN IS DAVIS-MONTHAN AIR FORCE BASE
NAS    - NAVAL AIR STATION
         EL CENTRO NAS IS EL CENTRO NAVAL AIR STATION
N/A    - NOT AVAILABLE



USA.gov is the U.S. government's official web portal to all federal, state and local government web resources and services.